Time,TemperatureF,DewpointF,PressureIn,WindDirection,WindDirectionDegrees,WindSpeedMPH,WindSpeedGustMPH,Humidity,HourlyPrecipIn,Conditions,Clouds,dailyrainin,SoftwareType,DateUTC
2013-02-13 00:14:00,23.7,20.1,29.82,East,90,0.0,-999.0,86,-99.99,,,0.00,Acu-Link.com,2013-02-13 05:14:00,
2013-02-13 00:29:00,23.7,20.1,29.81,NE,45,0.0,-999.0,86,-99.99,,,0.00,Acu-Link.com,2013-02-13 05:29:00,
2013-02-13 00:44:00,23.5,20.2,29.82,South,180,0.0,-999.0,87,-99.99,,,0.00,Acu-Link.com,2013-02-13 05:44:00,
2013-02-13 00:59:00,23.0,20.0,29.82,NE,45,0.0,-999.0,88,-99.99,,,0.00,Acu-Link.com,2013-02-13 05:59:00,
2013-02-13 01:14:00,22.8,19.8,29.82,ENE,67,0.0,-999.0,88,-99.99,,,0.00,Acu-Link.com,2013-02-13 06:14:00,
2013-02-13 01:29:00,22.6,19.9,29.82,NNE,22,0.0,-999.0,89,-99.99,,,0.00,Acu-Link.com,2013-02-13 06:29:00,
2013-02-13 01:44:00,22.3,19.6,29.82,East,90,0.0,-999.0,89,-99.99,,,0.00,Acu-Link.com,2013-02-13 06:44:00,
2013-02-13 02:00:00,22.3,19.8,29.83,NE,45,1.1,-999.0,90,-99.99,,,0.00,Acu-Link.com,2013-02-13 07:00:00,
2013-02-13 02:15:00,22.1,19.6,29.82,NE,45,0.0,-999.0,90,-99.99,,,0.00,Acu-Link.com,2013-02-13 07:15:00,
2013-02-13 02:30:00,22.1,19.9,29.82,NNE,22,0.0,-999.0,91,-99.99,,,0.00,Acu-Link.com,2013-02-13 07:30:00,
2013-02-13 02:45:00,21.7,19.2,29.81,East,90,0.0,-999.0,90,-99.99,,,0.00,Acu-Link.com,2013-02-13 07:45:00,
2013-02-13 03:00:00,21.7,19.5,29.81,NE,45,0.0,-999.0,91,-99.99,,,0.00,Acu-Link.com,2013-02-13 08:00:00,
2013-02-13 03:15:00,21.7,19.5,29.80,NNE,22,0.0,-999.0,91,-99.99,,,0.00,Acu-Link.com,2013-02-13 08:15:00,
2013-02-13 03:30:00,21.6,19.4,29.79,East,90,0.0,-999.0,91,-99.99,,,0.00,Acu-Link.com,2013-02-13 08:30:00,
2013-02-13 03:45:00,21.2,18.7,29.79,East,90,0.0,-999.0,90,-99.99,,,0.00,Acu-Link.com,2013-02-13 08:45:00,
2013-02-13 04:00:00,20.8,18.3,29.79,NE,45,0.0,-999.0,90,-99.99,,,0.00,Acu-Link.com,2013-02-13 09:00:00,
2013-02-13 04:15:00,20.7,18.2,29.79,East,90,0.0,-999.0,90,-99.99,,,0.00,Acu-Link.com,2013-02-13 09:15:00,
2013-02-13 04:31:00,20.8,18.9,29.78,NNE,22,1.7,-999.0,92,-99.99,,,0.00,Acu-Link.com,2013-02-13 09:31:00,
2013-02-13 04:46:00,21.0,19.0,29.78,NNW,337,0.0,-999.0,92,-99.99,,,0.00,Acu-Link.com,2013-02-13 09:46:00,
2013-02-13 05:01:00,20.8,18.9,29.79,ENE,67,0.0,-999.0,92,-99.99,,,0.00,Acu-Link.com,2013-02-13 10:01:00,
2013-02-13 05:16:00,20.5,18.6,29.79,East,90,2.2,-999.0,92,-99.99,,,0.00,Acu-Link.com,2013-02-13 10:16:00,
2013-02-13 05:31:00,20.7,18.8,29.79,NNW,337,0.0,-999.0,92,-99.99,,,0.00,Acu-Link.com,2013-02-13 10:31:00,
2013-02-13 05:46:00,20.3,18.1,29.79,East,90,0.0,-999.0,91,-99.99,,,0.00,Acu-Link.com,2013-02-13 10:46:00,
2013-02-13 06:02:00,20.3,18.1,29.78,ENE,67,2.2,-999.0,91,-99.99,,,0.00,Acu-Link.com,2013-02-13 11:02:00,
2013-02-13 06:17:00,20.3,18.1,29.77,NNW,337,1.7,-999.0,91,-99.99,,,0.00,Acu-Link.com,2013-02-13 11:17:00,
2013-02-13 06:32:00,20.5,18.6,29.77,ESE,112,0.0,-999.0,92,-99.99,,,0.00,Acu-Link.com,2013-02-13 11:32:00,
2013-02-13 06:47:00,20.1,17.9,29.77,ENE,67,0.0,-999.0,91,-99.99,,,0.00,Acu-Link.com,2013-02-13 11:47:00,
2013-02-13 07:02:00,19.8,17.6,29.78,ESE,112,0.0,-999.0,91,-99.99,,,0.00,Acu-Link.com,2013-02-13 12:02:00,
2013-02-13 07:17:00,19.8,17.9,29.77,NE,45,0.0,-999.0,92,-99.99,,,0.00,Acu-Link.com,2013-02-13 12:17:00,
2013-02-13 07:33:00,19.8,17.9,29.77,ESE,112,0.0,-999.0,92,-99.99,,,0.00,Acu-Link.com,2013-02-13 12:33:00,
2013-02-13 07:48:00,19.9,18.0,29.77,NE,45,0.0,-999.0,92,-99.99,,,0.00,Acu-Link.com,2013-02-13 12:48:00,
2013-02-13 08:03:00,20.7,18.8,29.76,WNW,292,0.0,-999.0,92,-99.99,,,0.00,Acu-Link.com,2013-02-13 13:03:00,
2013-02-13 08:18:00,22.6,20.4,29.75,ESE,112,0.0,-999.0,91,-99.99,,,0.00,Acu-Link.com,2013-02-13 13:18:00,
2013-02-13 08:33:00,23.5,20.2,29.74,WSW,247,0.0,-999.0,87,-99.99,,,0.00,Acu-Link.com,2013-02-13 13:33:00,
2013-02-13 08:48:00,23.9,20.1,29.73,West,270,2.7,-999.0,85,-99.99,,,0.00,Acu-Link.com,2013-02-13 13:48:00,
2013-02-13 09:03:00,25.3,21.4,29.74,West,270,2.2,-999.0,85,-99.99,,,0.00,Acu-Link.com,2013-02-13 14:03:00,
2013-02-13 09:18:00,25.7,21.3,29.73,West,270,1.7,-999.0,83,-99.99,,,0.00,Acu-Link.com,2013-02-13 14:18:00,
2013-02-13 09:33:00,25.5,20.8,29.73,NW,315,0.0,-999.0,82,-99.99,,,0.00,Acu-Link.com,2013-02-13 14:33:00,
2013-02-13 09:49:00,26.2,21.5,29.72,SW,225,0.0,-999.0,82,-99.99,,,0.00,Acu-Link.com,2013-02-13 14:49:00,
2013-02-13 10:04:00,26.6,21.3,29.72,West,270,2.2,-999.0,80,-99.99,,,0.00,Acu-Link.com,2013-02-13 15:04:00,
2013-02-13 10:19:00,27.9,21.9,29.72,West,270,1.7,-999.0,78,-99.99,,,0.00,Acu-Link.com,2013-02-13 15:19:00,
2013-02-13 10:34:00,28.8,22.2,29.71,West,270,3.7,-999.0,76,-99.99,,,0.00,Acu-Link.com,2013-02-13 15:34:00,
2013-02-13 10:49:00,29.7,22.4,29.71,West,270,2.2,-999.0,74,-99.99,,,0.00,Acu-Link.com,2013-02-13 15:49:00,
2013-02-13 11:04:00,31.1,23.5,29.71,WSW,247,0.0,-999.0,73,-99.99,,,0.00,Acu-Link.com,2013-02-13 16:04:00,
2013-02-13 11:19:00,34.7,25.2,29.71,WSW,247,4.2,-999.0,68,-99.99,,,0.00,Acu-Link.com,2013-02-13 16:19:00,
2013-02-13 11:35:00,35.2,24.3,29.69,ESE,112,2.2,-999.0,64,-99.99,,,0.00,Acu-Link.com,2013-02-13 16:35:00,
2013-02-13 11:50:00,36.5,24.3,29.68,WNW,292,4.2,-999.0,61,-99.99,,,0.00,Acu-Link.com,2013-02-13 16:50:00,
2013-02-13 12:05:00,37.6,24.6,29.66,ESE,112,4.2,-999.0,59,-99.99,,,0.00,Acu-Link.com,2013-02-13 17:05:00,
2013-02-13 12:20:00,38.1,24.6,29.65,NNE,22,7.3,-999.0,58,-99.99,,,0.00,Acu-Link.com,2013-02-13 17:20:00,
2013-02-13 12:35:00,39.2,25.3,29.64,NE,45,4.2,-999.0,57,-99.99,,,0.00,Acu-Link.com,2013-02-13 17:35:00,
2013-02-13 12:50:00,40.1,25.7,29.64,NE,45,2.2,-999.0,56,-99.99,,,0.00,Acu-Link.com,2013-02-13 17:50:00,
2013-02-13 13:06:00,41.4,26.0,29.64,SSW,202,4.7,-999.0,54,-99.99,,,0.00,Acu-Link.com,2013-02-13 18:06:00,
2013-02-13 13:21:00,40.8,25.9,29.63,SSE,157,3.7,-999.0,55,-99.99,,,0.00,Acu-Link.com,2013-02-13 18:21:00,
2013-02-13 13:36:00,41.4,26.9,29.61,West,270,2.2,-999.0,56,-99.99,,,0.00,Acu-Link.com,2013-02-13 18:36:00,
2013-02-13 13:51:00,40.6,26.1,29.60,ESE,112,2.7,-999.0,56,-99.99,,,0.00,Acu-Link.com,2013-02-13 18:51:00,
2013-02-13 14:06:00,40.3,25.4,29.59,South,180,0.0,-999.0,55,-99.99,,,0.00,Acu-Link.com,2013-02-13 19:06:00,
2013-02-13 14:21:00,40.6,26.1,29.58,SSE,157,0.0,-999.0,56,-99.99,,,0.00,Acu-Link.com,2013-02-13 19:21:00,
2013-02-13 14:37:00,40.6,25.7,29.57,SSW,202,4.7,-999.0,55,-99.99,,,0.00,Acu-Link.com,2013-02-13 19:37:00,
2013-02-13 14:52:00,40.5,25.6,29.57,SE,135,0.0,-999.0,55,-99.99,,,0.00,Acu-Link.com,2013-02-13 19:52:00,
2013-02-13 15:07:00,41.0,26.1,29.57,South,180,1.7,-999.0,55,-99.99,,,0.00,Acu-Link.com,2013-02-13 20:07:00,
2013-02-13 15:22:00,40.8,26.3,29.56,ESE,112,0.0,-999.0,56,-99.99,,,0.00,Acu-Link.com,2013-02-13 20:22:00,
2013-02-13 15:37:00,40.6,26.1,29.56,ESE,112,0.0,-999.0,56,-99.99,,,0.00,Acu-Link.com,2013-02-13 20:37:00,
2013-02-13 15:52:00,40.1,26.1,29.56,SSE,157,0.0,-999.0,57,-99.99,,,0.00,Acu-Link.com,2013-02-13 20:52:00,
2013-02-13 16:07:00,39.4,26.3,29.55,ESE,112,1.7,-999.0,59,-99.99,,,0.00,Acu-Link.com,2013-02-13 21:07:00,
2013-02-13 16:22:00,39.0,26.3,29.54,ESE,112,1.7,-999.0,60,-99.99,,,0.00,Acu-Link.com,2013-02-13 21:22:00,
2013-02-13 16:37:00,37.9,26.1,29.55,ESE,112,0.0,-999.0,62,-99.99,,,0.00,Acu-Link.com,2013-02-13 21:37:00,
2013-02-13 16:53:00,37.9,26.1,29.55,ESE,112,0.0,-999.0,62,-99.99,,,0.00,Acu-Link.com,2013-02-13 21:53:00,
2013-02-13 17:08:00,37.4,26.0,29.55,SSE,157,0.0,-999.0,63,-99.99,,,0.00,Acu-Link.com,2013-02-13 22:08:00,
2013-02-13 17:23:00,36.9,25.5,29.54,SW,225,0.0,-999.0,63,-99.99,,,0.00,Acu-Link.com,2013-02-13 22:23:00,
2013-02-13 17:38:00,36.5,25.5,29.56,East,90,0.0,-999.0,64,-99.99,,,0.00,Acu-Link.com,2013-02-13 22:38:00,
2013-02-13 17:53:00,36.0,25.8,29.56,ESE,112,0.0,-999.0,66,-99.99,,,0.00,Acu-Link.com,2013-02-13 22:53:00,
2013-02-13 18:08:00,35.6,25.7,29.58,East,90,0.0,-999.0,67,-99.99,,,0.00,Acu-Link.com,2013-02-13 23:08:00,
2013-02-13 18:23:00,34.7,27.9,29.58,East,90,0.0,-999.0,76,-99.99,,,0.00,Acu-Link.com,2013-02-13 23:23:00,
2013-02-13 18:39:00,34.0,28.8,29.58,ENE,67,0.0,-999.0,81,-99.99,,,0.00,Acu-Link.com,2013-02-13 23:39:00,
2013-02-13 18:54:00,33.3,29.6,29.59,WNW,292,0.0,-999.0,86,-99.99,,,0.00,Acu-Link.com,2013-02-13 23:54:00,
2013-02-13 19:09:00,32.9,29.2,29.59,West,270,0.0,-999.0,86,-99.99,,,0.00,Acu-Link.com,2013-02-14 00:09:00,
2013-02-13 19:24:00,32.5,29.3,29.59,South,180,0.0,-999.0,88,-99.99,,,0.00,Acu-Link.com,2013-02-14 00:24:00,
2013-02-13 19:39:00,32.4,29.3,29.60,SW,225,0.0,-999.0,88,-99.99,,,0.00,Acu-Link.com,2013-02-14 00:39:00,
2013-02-13 19:54:00,32.2,29.3,29.59,East,90,0.0,-999.0,89,-99.99,,,0.00,Acu-Link.com,2013-02-14 00:54:00,
2013-02-13 20:09:00,32.2,29.6,29.59,NNE,22,0.0,-999.0,90,-99.99,,,0.00,Acu-Link.com,2013-02-14 01:09:00,
2013-02-13 20:24:00,32.0,29.4,29.60,East,90,0.0,-999.0,90,-99.99,,,0.00,Acu-Link.com,2013-02-14 01:24:00,
2013-02-13 20:39:00,32.0,29.7,29.59,ESE,112,0.0,-999.0,91,-99.99,,,0.00,Acu-Link.com,2013-02-14 01:39:00,
2013-02-13 20:55:00,31.8,29.7,29.59,ENE,67,0.0,-999.0,92,-99.99,,,0.00,Acu-Link.com,2013-02-14 01:55:00,
2013-02-13 21:10:00,31.8,29.7,29.60,West,270,0.0,-999.0,92,-99.99,,,0.00,Acu-Link.com,2013-02-14 02:10:00,
2013-02-13 21:25:00,31.6,29.5,29.60,ESE,112,0.0,-999.0,92,-99.99,,,0.00,Acu-Link.com,2013-02-14 02:25:00,
2013-02-13 21:40:00,31.5,29.4,29.59,NE,45,0.0,-999.0,92,-99.99,,,0.00,Acu-Link.com,2013-02-14 02:40:00,
2013-02-13 21:55:00,31.3,29.3,29.60,SSE,157,0.0,-999.0,92,-99.99,,,0.00,Acu-Link.com,2013-02-14 02:55:00,
2013-02-13 22:10:00,31.3,29.3,29.60,West,270,0.0,-999.0,92,-99.99,,,0.00,Acu-Link.com,2013-02-14 03:10:00,
2013-02-13 22:25:00,31.1,29.3,29.60,West,270,0.0,-999.0,93,-99.99,,,0.00,Acu-Link.com,2013-02-14 03:25:00,
2013-02-13 22:40:00,31.3,29.8,29.60,SSE,157,0.0,-999.0,94,-99.99,,,0.00,Acu-Link.com,2013-02-14 03:40:00,
2013-02-13 22:55:00,31.1,29.6,29.60,SSE,157,0.0,-999.0,94,-99.99,,,0.00,Acu-Link.com,2013-02-14 03:55:00,
2013-02-13 23:11:00,30.6,29.1,29.60,SE,135,0.0,-999.0,94,-99.99,,,0.00,Acu-Link.com,2013-02-14 04:11:00,
2013-02-13 23:26:00,30.0,28.5,29.61,WSW,247,0.0,-999.0,94,-99.99,,,0.00,Acu-Link.com,2013-02-14 04:26:00,
2013-02-13 23:41:00,29.7,28.2,29.61,SSE,157,0.0,-999.0,94,-99.99,,,0.00,Acu-Link.com,2013-02-14 04:41:00,
2013-02-13 23:56:00,29.8,28.3,29.63,ENE,67,0.0,-999.0,94,-99.99,,,0.00,Acu-Link.com,2013-02-14 04:56:00,